Location: Creston
(40.9870°N, 81.8938°W)
Time: 18:00:14
(UTC+00:00)

CZ-2D R/B - Pass Details

Date: 29 October 2020
Orbit: 522 x 537 km, 97.4° (Epoch: 28 November)

Event Time Altitude Azimuth Distance (km) Brightness Sun altitude
Rises 23:40:11 0° 161° (SSE) 2,648 6.7 -14.4°
Reaches altitude 10° 23:42:17 10° 159° (SSE) 1,761 5.7 -14.8°
Maximum altitude 23:46:04 69° 76° (ENE) 565 3.1 -15.5°
Drops below altitude 10° 23:49:51 10° 353° (N) 1,769 5.9 -16.3°
Sets 23:51:58 0° 351° (N) 2,661 6.9 -16.7°
